Simultaneous Nadir Overpasses (SNOs) Predictions

Prediction of SNOs between METOP-A and NOAA-19 Satellite Orbit:

Table of predicted SNOs for the next 14.0 days since TLE Epoch: 3/10/2012
Index Date (METOP-A) Time (METOP-A) METOP-A Lat,Lon Date (NOAA-19) Time (NOAA-19) NOAA-19 Lat,Lon Distance(km) Time Diff (sec)
1 03/18/2012 15:54:57 -73.43, 114.61 03/18/2012 15:53:46 -73.43, 113.15 46.22 71
2 03/18/2012 16:45:43 73.10, -78.78 03/18/2012 16:44:41 73.11, -78.87 2.74 62
3 03/18/2012 17:36:26 -73.06, 88.45 03/18/2012 17:35:44 -73.07, 88.46 0.81 42
4 03/18/2012 18:27:06 73.03,-104.28 03/18/2012 18:26:45 73.04,-104.24 1.47 21
5 03/18/2012 19:17:48 -73.04, 63.06 03/18/2012 19:17:49 -73.05, 62.98 2.84 1
6 03/18/2012 20:08:28 73.01,-129.66 03/18/2012 20:08:50 73.02,-129.71 1.70 22
7 03/18/2012 20:59:11 -72.97, 37.57 03/18/2012 20:59:53 -72.98, 37.61 1.83 42
8 03/18/2012 21:49:51 72.94,-155.16 03/18/2012 21:50:54 72.95,-155.08 2.61 63
9 03/18/2012 22:40:41 -72.54, 11.34 03/18/2012 22:41:51 -72.61, 12.87 51.53 70




NCC Satellite Simultaneous Nadir Overpasses (SNOs) Prediction Service
